Location: Oshawa
(43.9000°N, 78.8670°W)
Time: 22:01:14
(UTC-04:00)

S-56A Canister/Altair - All Passes

Search period start: 20 April 2014 00:00
Search period end: 30 April 2014 00:00
Orbit: 632 x 2503 km, 38.9° (Epoch: 18 April)

Date Brightness Start Highest point End Pass type
(mag) Time Alt. Az. Time Alt. Az. Time Alt. Az.
20 Apr - 07:36:32 10° SW 07:40:53 34° SSE 07:46:35 10° E daylight
20 Apr - 09:38:45 10° WSW 09:44:16 58° S 09:52:28 10° ESE daylight
20 Apr - 11:41:46 10° W 11:48:24 47° SSW 11:58:16 10° SE daylight
20 Apr - 13:46:05 10° W 13:52:50 24° SSW 14:01:40 10° SSE daylight
21 Apr - 07:04:52 10° SW 07:08:54 29° SSE 07:13:55 10° E daylight
21 Apr - 09:06:56 10° WSW 09:12:06 56° S 09:19:37 10° E daylight
21 Apr - 11:09:51 10° W 11:16:04 48° SSW 11:25:20 10° SE daylight
21 Apr - 13:13:53 10° W 13:20:23 26° SSW 13:29:03 10° SSE daylight
22 Apr - 06:33:14 10° SSW 06:36:56 25° SSE 06:41:18 10° E daylight
22 Apr - 08:35:07 10° WSW 08:40:00 53° S 08:46:50 10° E daylight
22 Apr - 10:37:58 10° W 10:43:47 49° SSW 10:52:25 10° ESE daylight
22 Apr - 12:41:46 10° W 12:47:59 27° SSW 12:56:24 10° SSE daylight
23 Apr - 06:01:37 10° SSW 06:04:59 21° SSE 06:08:44 10° ESE daylight
23 Apr - 08:03:18 10° WSW 08:07:55 50° S 08:14:09 10° E daylight
23 Apr - 10:06:06 10° W 10:11:34 49° S 10:19:34 10° ESE daylight
23 Apr - 12:09:42 10° W 12:15:37 28° SSW 12:23:44 10° SSE daylight
24 Apr - 05:30:03 10° SSW 05:33:02 18° SSE 05:36:12 10° ESE visible
24 Apr - 07:31:29 10° WSW 07:35:53 46° SSE 07:41:33 10° E daylight
24 Apr - 09:34:15 10° W 09:39:24 49° S 09:46:47 10° ESE daylight
24 Apr - 11:37:42 10° W 11:43:19 29° SSW 11:51:04 10° SSE daylight
25 Apr - 04:58:33 10° S 05:01:04 15° SSE 05:03:38 10° ESE visible
25 Apr - 06:59:39 10° WSW 07:03:53 42° SSE 07:09:03 10° E daylight
25 Apr - 09:02:24 10° W 09:07:16 49° S 09:14:04 10° ESE daylight
25 Apr - 11:05:44 10° W 11:11:03 30° SSW 11:18:24 10° SE daylight
25 Apr - 13:13:06 10° SW 13:15:04 11° SW 13:17:11 10° SSW daylight
26 Apr - 04:27:09 10° S 04:29:05 13° SSE 04:31:01 10° ESE visible
26 Apr - 06:27:48 10° SW 06:31:54 38° SSE 06:36:38 10° E daylight
26 Apr - 08:30:33 10° W 08:35:11 49° S 08:41:26 10° ESE daylight
26 Apr - 10:33:48 10° W 10:38:50 31° SSW 10:45:46 10° SE daylight
26 Apr - 12:40:12 10° SW 12:42:45 12° SSW 12:45:35 10° SSW daylight
27 Apr - 03:56:03 10° SSE 03:57:06 11° SSE 03:58:07 10° SE visible
27 Apr - 05:55:55 10° SW 05:59:56 34° SSE 06:04:18 10° E daylight
27 Apr - 07:58:40 10° WSW 08:03:08 49° S 08:08:53 10° ESE daylight
27 Apr - 10:01:53 10° W 10:06:40 32° SSW 10:13:10 10° SE daylight
27 Apr - 12:07:38 10° SW 12:10:28 13° SSW 12:13:41 10° S daylight
28 Apr - 05:24:00 10° SW 05:27:58 31° SSE 05:32:03 10° E visible
28 Apr - 07:26:47 10° WSW 07:31:06 48° S 07:36:26 10° ESE daylight
28 Apr - 09:29:59 10° W 09:34:32 32° SSW 09:40:38 10° SE daylight
28 Apr - 11:35:15 10° WSW 11:38:14 13° SSW 11:41:40 10° S daylight
29 Apr - 04:52:03 10° SW 04:56:00 28° SSE 04:59:51 10° E visible
29 Apr - 06:54:51 10° WSW 06:59:06 47° S 07:04:03 10° ESE daylight
29 Apr - 08:58:04 10° W 09:02:27 33° SSW 09:08:09 10° SE daylight
29 Apr - 11:02:58 10° WSW 11:06:02 14° SSW 11:09:35 10° S daylight
